This is the latest recevied weather packets stored in our database for station/object DL6SW-10. If no packets are shown the sender has not sent any weather packets the latest 1 day(s).
| Time | Temp. | Humidity | Pressure | Rain* | Wind** | Luminosity | Snow |
|---|---|---|---|---|---|---|---|
| 1778080414 | 15.56° C | 64% | 1009.8 hPa | - | - | - | - |
| 1778077711 | 17.22° C | 61% | 1009.5 hPa | - | - | - | - |
| 1778075010 | 16.11° C | 58% | 1009.2 hPa | - | - | - | - |
| 1778067810 | 22.22° C | 47% | 1008.6 hPa | - | - | - | - |
| 1778066896 | 22.22° C | 46% | 1008.2 hPa | - | - | - | - |
| 1778065996 | 24.44° C | 45% | 1008.2 hPa | - | - | - | - |
| 1778065102 | 26.67° C | 45% | 1009.1 hPa | - | - | - | - |
| 1778058787 | 23.89° C | 54% | 1009.4 hPa | - | - | - | - |
| 1778057895 | 27.22° C | 54% | 1009.2 hPa | - | - | - | - |
| 1778053380 | 20° C | 71% | 1009.5 hPa | - | - | - | - |
| 1778052483 | 18.33° C | 73% | 1009.9 hPa | - | - | - | - |
| 1778051590 | 17.78° C | 75% | 1009.5 hPa | - | - | - | - |
| 1778051578 | 17.78° C | 75% | 1009.5 hPa | - | - | - | - |
| 1778050678 | 17.22° C | 76% | 1009.2 hPa | - | - | - | - |
| 1778048881 | 15.56° C | 78% | 1009.5 hPa | - | - | - | - |
| 1778047975 | 14.44° C | 79% | 1009.5 hPa | - | - | - | - |
| 1778045274 | 12.22° C | 80% | 1009.8 hPa | - | - | - | - |
| 1778043469 | 11.67° C | 81% | 1010.3 hPa | - | - | - | - |
| 1778041671 | 11.67° C | 81% | 1009.7 hPa | - | - | - | - |
| 1778041669 | 11.67° C | 81% | 1009.7 hPa | - | - | - | - |
| 1778040770 | 11.67° C | 81% | 1009.9 hPa | - | - | - | - |
| 1778040768 | 11.67° C | 81% | 1009.9 hPa | - | - | - | - |
| 1778039871 | 11.67° C | 81% | 1009.6 hPa | - | - | - | - |
| 1778039868 | 11.67° C | 81% | 1009.6 hPa | - | - | - | - |
| 1778038972 | 11.67° C | 81% | 1010.5 hPa | - | - | - | - |
* Rain since midnight (hover to see other rain measurements)
** Current wind speed in m/s (hover to see current wind gust speed)